Lamezia, Italy

6:30 AM CET on December 08, 2016 (GMT +0100)
Terme

Weather History for LICA - October, 2011

Change the Weather History Date:

Thursday, October 27, 2011

  Actual Average Record
Temperature  
Mean Temperature 66 °F -  
Max Temperature 71 °F 64 °F 84 °F (1999)
Min Temperature 60 °F 50 °F 46 °F (1996)
Growing Degree Days 16 (Base 50)    
Moisture  
Dew Point 59 °F    
Average Humidity 83    
Maximum Humidity 94    
Minimum Humidity 64    
Precipitation  
Precipitation 0.00 in - - ()
Sea Level Pressure  
Sea Level Pressure 30.07 in    
Wind  
Wind Speed 9 mph ()    
Max Wind Speed 20 mph    
Max Gust Speed -    
Visibility 6.2 miles    
Events      
Averages and records for this station are not official NWS values.
T = Trace of Precipitation, MM = Missing Value Source: Averaged Metar Reports

Daily Weather History Graph

Daily Weather History Graph

Search for Another Location

Airport or City:

Trip Planner

Search our weather history database for the weather conditions in past years. The results will help you decide how hot, cold, wet, or windy it might be!

Date:

Astronomy

Oct. 27, 2011 Rise Set
Actual Time 7:16 AM CEST 6:01 PM CEST
Civil Twilight 6:48 AM CEST 6:28 PM CEST
Nautical Twilight 6:17 AM CEST 6:59 PM CEST
Astronomical Twilight 5:46 AM CEST 7:30 PM CEST
Moon 7:56 AM CEST (10/27) 6:16 PM CEST (10/27)
Length of Visible Light 11h 39m
Length of Day
10h 44m
New Moon, 1% of the Moon is Illuminated
Oct 27
New Moon
Nov 2
First Quarter
Nov 10
Full
Nov 18
Last Quarter
Nov 25
New

Hourly Weather History & Observations

Time (CEST) Temp. Dew Point Humidity Pressure Visibility Wind Dir Wind Speed Gust Speed Precip Events Conditions
12:50 AM 62.6 °F 60.8 °F 94% 30.04 in 6.2 mi NE 5.8 mph - N/A   Light Drizzle
1:50 AM 62.6 °F 60.8 °F 94% 30.04 in 6.2 mi Variable 2.3 mph - N/A   Mostly Cloudy
2:50 AM 62.6 °F 60.8 °F 94% 30.04 in 6.2 mi ENE 4.6 mph - N/A   Mostly Cloudy
3:50 AM 60.8 °F 59.0 °F 94% 30.04 in 6.2 mi Variable 3.5 mph - N/A   Mostly Cloudy
4:50 AM 60.8 °F 59.0 °F 94% 30.04 in 6.2 mi Variable 3.5 mph - N/A   Mostly Cloudy
5:50 AM 60.8 °F 59.0 °F 94% 30.04 in 6.2 mi NE 5.8 mph - N/A   Scattered Clouds
6:50 AM 62.6 °F 60.8 °F 94% 30.04 in 6.2 mi ENE 11.5 mph - N/A   Scattered Clouds
7:50 AM 62.6 °F 60.8 °F 94% 30.06 in 6.2 mi ENE 12.7 mph - N/A   Scattered Clouds
8:50 AM 62.6 °F 60.8 °F 94% 30.06 in 6.2 mi ENE 12.7 mph - N/A   Partly Cloudy
9:50 AM 64.4 °F 60.8 °F 88% 30.09 in 6.2 mi ENE 15.0 mph - N/A   Scattered Clouds
10:50 AM 66.2 °F 60.8 °F 83% 30.09 in 6.2 mi ENE 13.8 mph - N/A   Scattered Clouds
11:50 AM 68.0 °F 60.8 °F 78% 30.09 in 6.2 mi ENE 15.0 mph - N/A   Scattered Clouds
12:50 PM 69.8 °F 60.8 °F 73% 30.09 in 6.2 mi ENE 18.4 mph - N/A   Partly Cloudy
1:50 PM 71.6 °F 62.6 °F 73% 30.06 in 6.2 mi ENE 16.1 mph - N/A   Scattered Clouds
2:50 PM 69.8 °F 59.0 °F 68% 30.06 in 6.2 mi ENE 19.6 mph - N/A   Partly Cloudy
3:50 PM 69.8 °F 59.0 °F 68% 30.06 in 6.2 mi East 17.3 mph - N/A   Partly Cloudy
4:50 PM 69.8 °F 57.2 °F 64% 30.06 in 6.2 mi East 16.1 mph - N/A   Partly Cloudy
5:50 PM 66.2 °F 57.2 °F 73% 30.09 in 6.2 mi ENE 13.8 mph - N/A   Scattered Clouds
6:50 PM 66.2 °F 59.0 °F 78% 30.09 in 6.2 mi NE 13.8 mph - N/A   Scattered Clouds
7:50 PM 64.4 °F 55.4 °F 73% 30.09 in 6.2 mi ENE 13.8 mph - N/A   Partly Cloudy
8:50 PM 64.4 °F 55.4 °F 73% 30.12 in 6.2 mi ENE 11.5 mph - N/A   Partly Cloudy
9:50 PM 62.6 °F 57.2 °F 82% 30.12 in 6.2 mi NE 10.4 mph - N/A   Partly Cloudy
10:50 PM 64.4 °F 59.0 °F 83% 30.12 in 6.2 mi ENE 13.8 mph - N/A   Partly Cloudy
11:50 PM 64.4 °F 59.0 °F 83% 30.12 in 6.2 mi NE 11.5 mph - N/A   Partly Cloudy